Philip, SD

4:44 AM MDT on October 21, 2017 (GMT -0600)
Philip

Weather History for KPHP - January, 2015

Change the Weather History Date:

Sunday, January 4, 2015

  Actual Average Record
Temperature  
Mean Temperature -2 °F 21 °F  
Max Temperature 8 °F 34 °F 62 °F (2012)
Min Temperature -12 °F 9 °F -32 °F (1950)
Degree Days  
Heating Degree Days 67 44  
Month to date heating degree days 203 176  
Since 1 July heating degree days 3049 3111  
Cooling Degree Days 0 0  
Month to date cooling degree days 0 0  
Year to date cooling degree days 0 0  
Moisture  
Dew Point -4 °F    
Average Humidity 76    
Maximum Humidity 83    
Minimum Humidity 69    
Precipitation  
Precipitation 0.01 in 0.01 in 0.49 in (1949)
Month to date precipitation 0.01 0.04  
Year to date precipitation 0.01 0.04  
Sea Level Pressure  
Sea Level Pressure 30.63 in    
Wind  
Wind Speed 7 mph (WNW)    
Max Wind Speed 13 mph    
Max Gust Speed 15 mph    
Visibility 8 miles    
Events Snow    
T = Trace of Precipitation, MM = Missing Value Source: NWS Daily Summary

Daily Weather History Graph

Daily Weather History Graph

Search for Another Location

Airport or City:

Trip Planner

Search our weather history database for the weather conditions in past years. The results will help you decide how hot, cold, wet, or windy it might be!

Date:

Astronomy

Jan. 04, 2015 Rise Set
Actual Time 7:21 AM MST 4:21 PM MST
Civil Twilight 6:48 AM MST 4:54 PM MST
Nautical Twilight 6:12 AM MST 5:30 PM MST
Astronomical Twilight 5:37 AM MST 6:05 PM MST
Moon 4:26 PM MST (1/4) 6:32 AM MST (1/4)
Length of Visible Light 10h 05m
Length of Day
9h 00m
Full, 100% of the Moon is Illuminated
Jan 4
Full
Jan 4
Full
Jan 13
Last Quarter
Jan 20
New
Jan 26
First Quarter

Hourly Weather History & Observations

Time (MST) Temp. Windchill Dew Point Humidity Pressure Visibility Wind Dir Wind Speed Gust Speed Precip Events Conditions
12:55 AM -2.9 °F -15.0 °F -9.0 °F 75% 30.59 in 10.0 mi WNW 5.8 mph - N/A   Scattered Clouds
1:55 AM -4.0 °F -16.3 °F -9.0 °F 79% 30.60 in 10.0 mi West 5.8 mph - N/A   Mostly Cloudy
2:55 AM -7.1 °F -22.8 °F -11.9 °F 79% 30.60 in 10.0 mi West 8.1 mph - N/A   Clear
3:55 AM -8.0 °F -21.0 °F -13.0 °F 79% 30.59 in 10.0 mi West 5.8 mph - N/A   Clear
4:55 AM -8.0 °F -23.9 °F -14.1 °F 75% 30.60 in 10.0 mi West 8.1 mph - N/A   Clear
5:55 AM -9.0 °F -20.4 °F -14.1 °F 79% 30.61 in 10.0 mi West 4.6 mph - N/A   Clear
6:55 AM -11.0 °F -22.8 °F -16.1 °F 78% 30.63 in 10.0 mi West 4.6 mph - N/A   Clear
7:55 AM -11.0 °F -26.2 °F -16.1 °F 78% 30.66 in 10.0 mi West 6.9 mph - N/A   Clear
8:55 AM -7.1 °F -18.1 °F -11.0 °F 83% 30.67 in 10.0 mi WSW 4.6 mph - N/A   Clear
9:55 AM -0.0 °F -11.6 °F -7.1 °F 72% 30.68 in 10.0 mi West 5.8 mph - N/A   Scattered Clouds
10:35 AM 1.9 °F -12.9 °F -5.1 °F 72% 30.51 in 10.0 mi West 9.2 mph - N/A   Overcast
10:55 AM 3.0 °F -9.3 °F -4.0 °F 73% 30.67 in 10.0 mi West 6.9 mph - N/A   Overcast
11:55 AM 5.0 °F -6.9 °F -2.9 °F 70% 30.64 in 10.0 mi WNW 6.9 mph - N/A   Mostly Cloudy
12:55 PM 6.1 °F -7.8 °F -2.9 °F 67% 30.63 in 8.0 mi West 9.2 mph - N/A   Overcast
1:55 PM 6.1 °F -7.8 °F -2.0 °F 69% 30.66 in 3.0 mi West 9.2 mph - 0.00 in Snow Light Snow
2:55 PM 7.0 °F -6.6 °F -0.0 °F 73% 30.69 in 5.0 mi West 9.2 mph - 0.00 in Snow Light Snow
3:30 PM 7.0 °F -5.7 °F 1.0 °F 77% 30.52 in 1.8 mi West 8.1 mph - 0.00 in Snow Light Snow
3:40 PM 8.1 °F -4.3 °F 1.0 °F 73% 30.52 in 3.0 mi WNW 8.1 mph - 0.00 in Snow Light Snow
3:55 PM 8.1 °F -5.3 °F 1.0 °F 73% 30.70 in 4.0 mi WNW 9.2 mph - 0.00 in Snow Light Snow
4:10 PM 8.1 °F -5.3 °F 1.9 °F 76% 30.54 in 2.0 mi NW 9.2 mph - 0.00 in Snow Light Snow
4:19 PM 8.1 °F -5.3 °F 1.9 °F 76% 30.54 in 1.5 mi NW 9.2 mph - 0.00 in Snow Light Snow
4:35 PM 8.1 °F -4.3 °F 1.9 °F 76% 30.55 in 3.0 mi NW 8.1 mph - 0.00 in Snow Light Snow
4:55 PM 8.1 °F -5.3 °F 1.9 °F 76% 30.71 in 4.0 mi WNW 9.2 mph - 0.01 in Snow Light Snow
5:55 PM 7.0 °F -6.6 °F 1.0 °F 77% 30.72 in 10.0 mi NW 9.2 mph - 0.00 in   Clear
6:55 PM 7.0 °F -5.7 °F 1.0 °F 77% 30.72 in 9.0 mi NNW 8.1 mph - 0.00 in Snow Light Snow
7:55 PM 6.1 °F -4.3 °F -0.0 °F 76% 30.73 in 10.0 mi NNW 5.8 mph - 0.00 in   Overcast
8:19 PM 5.0 °F -2.1 °F -0.0 °F 80% 30.56 in 9.0 mi NNW 3.5 mph - 0.00 in   Overcast
8:55 PM 5.0 °F -6.9 °F -0.9 °F 76% 30.73 in 10.0 mi NNW 6.9 mph - 0.00 in   Mostly Cloudy
9:03 PM 5.0 °F -6.9 °F -0.9 °F 76% 30.56 in 10.0 mi NNW 6.9 mph - N/A   Scattered Clouds
9:55 PM 5.0 °F -10.0 °F -2.9 °F 70% 30.71 in 10.0 mi NNW 10.4 mph - N/A   Overcast
10:55 PM 3.9 °F - -2.9 °F 73% 30.70 in 10.0 mi Calm Calm - N/A   Overcast
11:55 PM 3.9 °F - -4.0 °F 70% 30.67 in 10.0 mi Calm Calm - N/A   Overcast